CAL53 YBBN-NZAA

Flight info

Callsign CAL53
Flight time 2h 36m
Altitude 39000
Route SCOTT A464 UPLAR
Aircraft A359/H-SDE2E3GHIJ3J4J5LM1ORWXY/LB1D1

Departure

Time 2026-05-06 04:23
Airport Brisbane International Airport (YBBN)

Arrival

Time 2026-05-06 06:59
Airport Auckland International Airport (NZAA)
Time Latitude Longitude Altitude Speed Heading
2026-05-06 04:01 -27.40509 153.11016 24 ft 0 kts 306°
2026-05-06 04:14 -27.40514 153.11023 29 ft 4 kts 304°
2026-05-06 04:15 -27.40528 153.11049 29 ft 4 kts 300°
2026-05-06 04:15 -27.40542 153.11073 29 ft 4 kts 318°
2026-05-06 04:15 -27.40558 153.11084 29 ft 4 kts 349°
2026-05-06 04:15 -27.40578 153.11085 26 ft 4 kts 26°
2026-05-06 04:16 -27.40599 153.11069 29 ft 4 kts 45°
2026-05-06 04:16 -27.40612 153.11054 29 ft 0 kts 46°
2026-05-06 04:18 -27.40587 153.11085 29 ft 7 kts 45°
2026-05-06 04:18 -27.40530 153.11127 25 ft 13 kts 26°
2026-05-06 04:19 -27.40449 153.11174 26 ft 14 kts 27°
2026-05-06 04:19 -27.40359 153.11226 25 ft 15 kts 27°
2026-05-06 04:19 -27.40267 153.11283 27 ft 9 kts 31°
2026-05-06 04:19 -27.40245 153.11297 24 ft 9 kts 30°
2026-05-06 04:20 -27.40194 153.11346 26 ft 10 kts 59°
2026-05-06 04:20 -27.40201 153.11410 28 ft 9 kts 114°
2026-05-06 04:20 -27.40229 153.11474 25 ft 10 kts 117°
2026-05-06 04:20 -27.40262 153.11544 27 ft 11 kts 117°
2026-05-06 04:21 -27.40297 153.11622 27 ft 12 kts 117°
2026-05-06 04:21 -27.40323 153.11710 30 ft 12 kts 95°
2026-05-06 04:21 -27.40304 153.11797 29 ft 11 kts 60°
2026-05-06 04:21 -27.40238 153.11847 29 ft 11 kts 25°
2026-05-06 04:22 -27.40233 153.11850 30 ft 0 kts 25°
2026-05-06 04:22 -27.40164 153.11889 28 ft 37 kts 27°
2026-05-06 04:23 -27.38936 153.12594 26 ft 153 kts 27°
2026-05-06 04:23 -27.37889 153.13184 400 ft 168 kts 28°
2026-05-06 04:23 -27.36845 153.13736 1024 ft 168 kts 28°
2026-05-06 04:23 -27.35948 153.14690 1284 ft 189 kts 54°
2026-05-06 04:24 -27.35076 153.15937 1519 ft 217 kts 53°
2026-05-06 04:24 -27.34052 153.17275 1891 ft 236 kts 50°
2026-05-06 04:24 -27.32906 153.18656 2493 ft 246 kts 49°
2026-05-06 04:24 -27.31701 153.20064 3099 ft 254 kts 47°
2026-05-06 04:25 -27.30453 153.21505 3752 ft 258 kts 47°
2026-05-06 04:25 -27.29247 153.23012 4431 ft 260 kts 55°
2026-05-06 04:25 -27.28582 153.24887 5057 ft 260 kts 84°
2026-05-06 04:25 -27.28481 153.26900 5784 ft 259 kts 90°
2026-05-06 04:26 -27.28430 153.28938 6542 ft 261 kts 89°
2026-05-06 04:26 -27.28356 153.30994 7218 ft 266 kts 88°
2026-05-06 04:26 -27.28271 153.33066 7741 ft 271 kts 88°
2026-05-06 04:26 -27.28179 153.35196 7964 ft 274 kts 87°
2026-05-06 04:27 -27.28084 153.37343 7999 ft 275 kts 87°
2026-05-06 04:27 -27.28126 153.39491 7986 ft 277 kts 99°
2026-05-06 04:27 -27.28885 153.41474 8013 ft 281 kts 127°
2026-05-06 04:27 -27.30163 153.43169 7996 ft 286 kts 133°
2026-05-06 04:28 -27.31497 153.44834 7996 ft 287 kts 132°
2026-05-06 04:28 -27.32810 153.46517 8000 ft 286 kts 132°
2026-05-06 04:28 -27.34112 153.48203 7991 ft 286 kts 131°
2026-05-06 04:28 -27.35411 153.49893 7996 ft 286 kts 131°
2026-05-06 04:29 -27.36704 153.51579 7996 ft 286 kts 131°
2026-05-06 04:29 -27.38002 153.53276 7998 ft 286 kts 131°
2026-05-06 04:29 -27.39301 153.54970 7995 ft 286 kts 131°
2026-05-06 04:29 -27.40782 153.56454 7985 ft 286 kts 150°
2026-05-06 04:30 -27.42651 153.57120 8012 ft 283 kts 173°
2026-05-06 04:30 -27.44579 153.57373 7999 ft 283 kts 174°
2026-05-06 04:30 -27.46539 153.57625 7999 ft 283 kts 174°
2026-05-06 04:30 -27.48492 153.57902 7999 ft 283 kts 173°
2026-05-06 04:31 -27.50442 153.58187 8002 ft 283 kts 173°
2026-05-06 04:31 -27.52392 153.58476 7999 ft 283 kts 173°
2026-05-06 04:31 -27.54344 153.58769 8001 ft 283 kts 173°
2026-05-06 04:31 -27.56295 153.59062 7999 ft 283 kts 173°
2026-05-06 04:32 -27.58233 153.59449 7996 ft 283 kts 165°
2026-05-06 04:32 -27.60086 153.60220 8210 ft 285 kts 158°
2026-05-06 04:32 -27.61925 153.61107 8767 ft 288 kts 158°
2026-05-06 04:32 -27.63778 153.61987 9582 ft 291 kts 158°
2026-05-06 04:33 -27.65654 153.62870 10264 ft 297 kts 159°
2026-05-06 04:33 -27.67629 153.63795 10576 ft 316 kts 159°
2026-05-06 04:33 -27.69732 153.64777 10860 ft 335 kts 159°
2026-05-06 04:33 -27.71940 153.65809 11166 ft 352 kts 159°
2026-05-06 04:34 -27.74243 153.66890 11659 ft 361 kts 159°
2026-05-06 04:34 -27.76538 153.68108 12177 ft 369 kts 150°
2026-05-06 04:34 -27.78507 153.69943 12755 ft 375 kts 135°
2026-05-06 04:34 -27.80291 153.72111 13340 ft 380 kts 133°
2026-05-06 04:35 -27.82098 153.74311 13880 ft 385 kts 134°
2026-05-06 04:35 -27.83955 153.76541 14384 ft 390 kts 134°
2026-05-06 04:35 -27.85815 153.78810 14845 ft 396 kts 131°
2026-05-06 04:35 -27.86929 153.80459 15146 ft 400 kts 123°
2026-05-06 04:36 -27.88734 153.84164 15809 ft 406 kts 116°
2026-05-06 04:36 -27.89934 153.87075 16271 ft 411 kts 114°
2026-05-06 04:36 -27.90707 153.89051 16593 ft 415 kts 113°
2026-05-06 04:36 -27.91859 153.92035 17095 ft 420 kts 113°
2026-05-06 04:37 -27.93043 153.95081 17557 ft 425 kts 113°
2026-05-06 04:37 -27.94206 153.98027 18018 ft 430 kts 114°
2026-05-06 04:37 -27.95444 154.01118 18490 ft 435 kts 114°
2026-05-06 04:37 -27.96714 154.04257 18930 ft 440 kts 114°
2026-05-06 04:38 -27.97982 154.07378 19387 ft 444 kts 114°
2026-05-06 04:38 -27.99279 154.10564 19841 ft 448 kts 114°
2026-05-06 04:38 -28.00582 154.13770 20298 ft 452 kts 114°
2026-05-06 04:38 -28.01900 154.17016 20765 ft 456 kts 114°
2026-05-06 04:39 -28.03233 154.20307 21230 ft 460 kts 114°
2026-05-06 04:39 -28.04571 154.23610 21671 ft 464 kts 114°
2026-05-06 04:39 -28.05926 154.26965 22133 ft 468 kts 114°
2026-05-06 04:39 -28.07726 154.31421 22729 ft 474 kts 114°
2026-05-06 04:40 -28.08655 154.33726 23040 ft 476 kts 114°
2026-05-06 04:40 -28.10040 154.37161 23528 ft 480 kts 115°
2026-05-06 04:40 -28.11427 154.40606 23928 ft 484 kts 115°
2026-05-06 04:40 -28.12835 154.44104 24303 ft 489 kts 115°
2026-05-06 04:41 -28.14249 154.47621 24682 ft 493 kts 115°
2026-05-06 04:41 -28.15676 154.51174 25077 ft 497 kts 115°
2026-05-06 04:41 -28.17112 154.54750 25472 ft 501 kts 115°
2026-05-06 04:41 -28.18559 154.58360 25861 ft 505 kts 115°
2026-05-06 04:42 -28.20017 154.61999 26243 ft 509 kts 115°
2026-05-06 04:42 -28.21466 154.65620 26614 ft 513 kts 115°
2026-05-06 04:42 -28.22942 154.69312 26993 ft 516 kts 115°
2026-05-06 04:42 -28.24427 154.73029 27355 ft 520 kts 115°
2026-05-06 04:43 -28.25926 154.76784 27723 ft 524 kts 115°
2026-05-06 04:43 -28.27433 154.80564 28067 ft 528 kts 115°
2026-05-06 04:43 -28.28954 154.84383 28434 ft 532 kts 115°
2026-05-06 04:43 -28.30480 154.88219 28770 ft 536 kts 115°
2026-05-06 04:44 -28.32016 154.92083 29125 ft 539 kts 115°
2026-05-06 04:44 -28.33565 154.95984 29473 ft 543 kts 115°
2026-05-06 04:44 -28.35122 154.99909 29808 ft 547 kts 115°
2026-05-06 04:44 -28.36682 155.03846 30136 ft 550 kts 115°
2026-05-06 04:45 -28.38257 155.07824 30416 ft 553 kts 115°
2026-05-06 04:45 -28.39827 155.11795 30701 ft 556 kts 115°
2026-05-06 04:45 -28.41435 155.15866 30983 ft 559 kts 115°
2026-05-06 04:45 -28.43008 155.19851 31250 ft 562 kts 115°
2026-05-06 04:46 -28.44613 155.23922 31539 ft 565 kts 115°
2026-05-06 04:46 -28.46221 155.28006 31807 ft 568 kts 115°
2026-05-06 04:46 -28.47835 155.32108 32060 ft 570 kts 115°
2026-05-06 04:46 -28.49461 155.36247 32314 ft 573 kts 115°
2026-05-06 04:47 -28.51087 155.40388 32568 ft 575 kts 115°
2026-05-06 04:47 -28.52719 155.44550 32805 ft 578 kts 115°
2026-05-06 04:47 -28.54356 155.48730 33034 ft 580 kts 115°
2026-05-06 04:47 -28.56002 155.52937 33274 ft 582 kts 115°
2026-05-06 04:48 -28.57652 155.57160 33500 ft 584 kts 115°
2026-05-06 04:48 -28.59302 155.61386 33828 ft 584 kts 115°
2026-05-06 04:48 -28.60951 155.65615 34112 ft 584 kts 115°
2026-05-06 04:48 -28.62604 155.69861 34357 ft 585 kts 115°
2026-05-06 04:49 -28.64249 155.74087 34593 ft 585 kts 115°
2026-05-06 04:49 -28.65902 155.78340 34840 ft 586 kts 115°
2026-05-06 04:49 -28.67546 155.82576 35076 ft 586 kts 115°
2026-05-06 04:49 -28.69179 155.86788 35311 ft 587 kts 115°
2026-05-06 04:50 -28.70828 155.91042 35538 ft 587 kts 115°
2026-05-06 04:50 -28.72477 155.95304 35749 ft 588 kts 115°
2026-05-06 04:50 -28.74123 155.99564 35973 ft 588 kts 115°
2026-05-06 04:50 -28.75773 156.03839 36174 ft 589 kts 115°
2026-05-06 04:51 -28.77419 156.08107 36363 ft 590 kts 115°
2026-05-06 04:51 -28.79071 156.12396 36580 ft 590 kts 115°
2026-05-06 04:51 -28.80723 156.16689 36758 ft 591 kts 115°
2026-05-06 04:51 -28.82375 156.20987 36948 ft 592 kts 115°
2026-05-06 04:52 -28.84027 156.25291 37129 ft 592 kts 115°
2026-05-06 04:52 -28.85677 156.29596 37321 ft 593 kts 115°
2026-05-06 04:52 -28.87331 156.33913 37496 ft 593 kts 115°
2026-05-06 04:52 -28.88961 156.38174 37675 ft 594 kts 115°
2026-05-06 04:53 -28.90613 156.42499 37843 ft 594 kts 115°
2026-05-06 04:53 -28.92263 156.46822 38017 ft 595 kts 115°
2026-05-06 04:53 -28.93917 156.51160 38181 ft 595 kts 115°
2026-05-06 04:53 -28.95564 156.55485 38342 ft 596 kts 115°
2026-05-06 04:54 -28.97217 156.59832 38512 ft 596 kts 115°
2026-05-06 04:54 -28.98868 156.64177 38659 ft 597 kts 115°
2026-05-06 04:54 -29.00568 156.68501 38759 ft 596 kts 120°
2026-05-06 04:54 -29.02612 156.72609 38882 ft 592 kts 124°
2026-05-06 04:55 -29.04744 156.76628 39024 ft 592 kts 125°
2026-05-06 04:55 -29.09111 156.84622 39053 ft 593 kts 126°
2026-05-06 04:56 -29.13472 156.92553 39054 ft 592 kts 126°
2026-05-06 04:56 -29.17841 157.00553 39051 ft 592 kts 126°
2026-05-06 04:57 -29.22195 157.08573 39050 ft 592 kts 126°
2026-05-06 04:57 -29.26536 157.16591 39048 ft 592 kts 126°
2026-05-06 04:58 -29.30866 157.24602 39049 ft 592 kts 126°
2026-05-06 04:58 -29.35203 157.32640 39047 ft 592 kts 126°
2026-05-06 04:59 -29.39525 157.40664 39050 ft 592 kts 126°
2026-05-06 04:59 -29.43847 157.48702 39048 ft 592 kts 126°
2026-05-06 05:00 -29.48159 157.56740 39048 ft 591 kts 126°
2026-05-06 05:00 -29.52447 157.64749 39048 ft 591 kts 126°
2026-05-06 05:01 -29.56756 157.72812 39046 ft 591 kts 126°
2026-05-06 05:01 -29.61053 157.80867 39046 ft 591 kts 126°
2026-05-06 05:02 -29.65345 157.88932 39047 ft 591 kts 126°
2026-05-06 05:02 -29.69628 157.96996 39046 ft 591 kts 126°
2026-05-06 05:03 -29.73901 158.05055 39048 ft 590 kts 126°
2026-05-06 05:03 -29.78170 158.13123 39045 ft 590 kts 126°
2026-05-06 05:04 -29.82406 158.21141 39208 ft 589 kts 125°
2026-05-06 05:04 -29.84530 158.25166 39069 ft 584 kts 125°
2026-05-06 05:04 -29.86624 158.29146 39049 ft 581 kts 125°
2026-05-06 05:05 -29.90803 158.37095 39034 ft 579 kts 125°
2026-05-06 05:05 -29.94981 158.45053 39053 ft 579 kts 125°
2026-05-06 05:06 -29.99155 158.53019 39034 ft 579 kts 125°
2026-05-06 05:06 -30.03288 158.60924 39036 ft 579 kts 125°
2026-05-06 05:07 -30.07442 158.68886 39038 ft 578 kts 125°
2026-05-06 05:07 -30.11586 158.76844 39042 ft 578 kts 125°
2026-05-06 05:08 -30.15729 158.84816 39041 ft 578 kts 125°
2026-05-06 05:08 -30.19829 158.92721 39040 ft 577 kts 125°
2026-05-06 05:09 -30.23951 159.00684 39040 ft 577 kts 125°
2026-05-06 05:09 -30.28068 159.08652 39041 ft 576 kts 125°
2026-05-06 05:10 -30.32165 159.16599 39040 ft 576 kts 125°
2026-05-06 05:10 -30.36262 159.24562 39039 ft 575 kts 125°
2026-05-06 05:11 -30.40348 159.32520 39043 ft 575 kts 125°
2026-05-06 05:11 -30.44427 159.40480 39039 ft 574 kts 125°
2026-05-06 05:12 -30.48499 159.48443 39036 ft 574 kts 125°
2026-05-06 05:12 -30.52561 159.56400 39043 ft 573 kts 124°
2026-05-06 05:13 -30.56621 159.64370 39035 ft 573 kts 124°
2026-05-06 05:13 -30.60668 159.72332 39034 ft 572 kts 124°
2026-05-06 05:14 -30.64676 159.80234 39035 ft 572 kts 124°
2026-05-06 05:14 -30.68712 159.88206 39036 ft 571 kts 124°
2026-05-06 05:15 -30.72734 159.96167 39033 ft 571 kts 124°
2026-05-06 05:15 -30.76746 160.04123 39037 ft 570 kts 124°
2026-05-06 05:16 -30.80749 160.12079 39038 ft 569 kts 124°
2026-05-06 05:16 -30.84721 160.19990 39033 ft 569 kts 124°
2026-05-06 05:17 -30.88705 160.27940 39033 ft 568 kts 124°
2026-05-06 05:17 -30.92691 160.35910 39038 ft 568 kts 124°
2026-05-06 05:18 -30.96634 160.43811 39036 ft 567 kts 124°
2026-05-06 05:18 -31.00599 160.51773 39037 ft 567 kts 124°
2026-05-06 05:19 -31.04550 160.59722 39033 ft 566 kts 124°
2026-05-06 05:19 -31.08489 160.67663 39035 ft 565 kts 124°
2026-05-06 05:20 -31.12415 160.75595 39036 ft 564 kts 124°
2026-05-06 05:20 -31.16341 160.83544 39035 ft 564 kts 123°
2026-05-06 05:21 -31.20252 160.91478 39032 ft 563 kts 123°
2026-05-06 05:21 -31.24154 160.99410 39037 ft 562 kts 123°
2026-05-06 05:22 -31.28022 161.07291 39037 ft 562 kts 123°
2026-05-06 05:22 -31.31901 161.15208 39040 ft 561 kts 123°
2026-05-06 05:23 -31.35771 161.23124 39038 ft 560 kts 123°
2026-05-06 05:23 -31.41561 161.35000 39034 ft 559 kts 123°
2026-05-06 05:24 -31.44763 161.41583 39032 ft 559 kts 123°
2026-05-06 05:24 -31.48606 161.49499 39038 ft 558 kts 123°
2026-05-06 05:25 -31.52442 161.57418 39049 ft 558 kts 123°
2026-05-06 05:25 -31.56244 161.65281 39046 ft 557 kts 123°
2026-05-06 05:26 -31.60061 161.73194 39052 ft 557 kts 123°
2026-05-06 05:26 -31.63872 161.81109 39047 ft 556 kts 123°
2026-05-06 05:27 -31.68290 161.90307 39048 ft 556 kts 123°
2026-05-06 05:27 -31.71447 161.96893 39054 ft 556 kts 123°
2026-05-06 05:28 -31.75237 162.04814 39049 ft 555 kts 123°
2026-05-06 05:28 -31.79012 162.12723 39055 ft 555 kts 122°
2026-05-06 05:29 -31.82785 162.20643 39050 ft 554 kts 122°
2026-05-06 05:29 -31.86541 162.28544 39056 ft 553 kts 122°
2026-05-06 05:30 -31.90290 162.36447 39051 ft 553 kts 122°
2026-05-06 05:30 -31.94031 162.44351 39052 ft 552 kts 122°
2026-05-06 05:31 -31.97767 162.52258 39058 ft 552 kts 122°
2026-05-06 05:31 -32.01466 162.60105 39053 ft 551 kts 122°
2026-05-06 05:32 -32.05180 162.68002 39061 ft 551 kts 122°
2026-05-06 05:32 -32.08885 162.75895 39048 ft 550 kts 122°
2026-05-06 05:33 -32.12582 162.83788 39051 ft 549 kts 122°
2026-05-06 05:33 -32.16265 162.91670 39067 ft 549 kts 122°
2026-05-06 05:34 -32.19949 162.99568 39066 ft 548 kts 122°
2026-05-06 05:34 -32.23621 163.07466 39070 ft 547 kts 122°
2026-05-06 05:35 -32.27057 163.14870 39070 ft 547 kts 122°
2026-05-06 05:35 -32.30679 163.22693 39070 ft 546 kts 122°
2026-05-06 05:36 -32.34324 163.30580 39058 ft 545 kts 121°
2026-05-06 05:36 -32.37954 163.38453 39078 ft 544 kts 121°
2026-05-06 05:37 -32.41577 163.46327 39063 ft 543 kts 121°
2026-05-06 05:37 -32.45163 163.54136 39086 ft 542 kts 121°
2026-05-06 05:38 -32.48768 163.62004 39071 ft 542 kts 121°
2026-05-06 05:38 -32.52359 163.69859 39076 ft 542 kts 121°
2026-05-06 05:39 -32.55947 163.77726 39075 ft 542 kts 121°
2026-05-06 05:39 -32.59504 163.85539 39078 ft 542 kts 121°
2026-05-06 05:40 -32.63079 163.93410 39085 ft 542 kts 121°
2026-05-06 05:40 -32.66645 164.01279 39089 ft 542 kts 121°
2026-05-06 05:41 -32.70210 164.09160 39086 ft 542 kts 121°
2026-05-06 05:41 -32.73771 164.17052 39089 ft 542 kts 121°
2026-05-06 05:42 -32.77325 164.24944 39089 ft 542 kts 121°
2026-05-06 05:42 -32.80880 164.32857 39092 ft 542 kts 121°
2026-05-06 05:43 -32.84429 164.40774 39095 ft 542 kts 120°
2026-05-06 05:43 -32.87942 164.48628 39096 ft 541 kts 120°
2026-05-06 05:44 -32.91481 164.56557 39094 ft 541 kts 120°
2026-05-06 05:44 -32.95010 164.64482 39098 ft 541 kts 120°
2026-05-06 05:45 -32.98529 164.72401 39100 ft 541 kts 120°
2026-05-06 05:45 -33.02040 164.80320 39102 ft 541 kts 120°
2026-05-06 05:46 -33.05529 164.88207 39103 ft 541 kts 120°
2026-05-06 05:46 -33.09033 164.96145 39108 ft 541 kts 120°
2026-05-06 05:47 -33.12531 165.04087 39107 ft 541 kts 120°
2026-05-06 05:47 -33.16027 165.12043 39112 ft 541 kts 120°
2026-05-06 05:48 -33.19510 165.19988 39109 ft 540 kts 120°
2026-05-06 05:48 -33.22996 165.27956 39110 ft 540 kts 120°
2026-05-06 05:49 -33.26474 165.35925 39114 ft 540 kts 120°
2026-05-06 05:49 -33.29948 165.43901 39118 ft 540 kts 120°
2026-05-06 05:50 -33.33388 165.51819 39119 ft 541 kts 120°
2026-05-06 05:50 -33.36848 165.59799 39120 ft 540 kts 120°
2026-05-06 05:51 -33.40306 165.67794 39124 ft 540 kts 120°
2026-05-06 05:51 -33.43752 165.75780 39125 ft 540 kts 120°
2026-05-06 05:52 -33.47199 165.83785 39132 ft 540 kts 120°
2026-05-06 05:52 -33.50637 165.91787 39133 ft 540 kts 120°
2026-05-06 05:53 -33.54065 165.99787 39132 ft 539 kts 120°
2026-05-06 05:53 -33.57489 166.07795 39136 ft 539 kts 120°
2026-05-06 05:54 -33.60876 166.15732 39139 ft 538 kts 120°
2026-05-06 05:54 -33.64278 166.23723 39144 ft 537 kts 120°
2026-05-06 05:55 -33.67671 166.31714 39144 ft 537 kts 120°
2026-05-06 05:55 -33.71053 166.39695 39147 ft 536 kts 120°
2026-05-06 05:56 -33.74431 166.47686 39150 ft 536 kts 120°
2026-05-06 05:56 -33.77799 166.55672 39152 ft 535 kts 119°
2026-05-06 05:57 -33.81160 166.63658 39155 ft 535 kts 119°
2026-05-06 05:57 -33.84510 166.71639 39155 ft 534 kts 119°
2026-05-06 05:58 -33.87833 166.79572 39155 ft 534 kts 119°
2026-05-06 05:58 -33.91169 166.87556 39156 ft 534 kts 119°
2026-05-06 05:59 -33.94498 166.95540 39163 ft 533 kts 119°
2026-05-06 05:59 -33.97820 167.03529 39164 ft 533 kts 119°
2026-05-06 06:00 -34.01136 167.11518 39170 ft 533 kts 119°
2026-05-06 06:00 -34.04444 167.19510 39168 ft 532 kts 119°
2026-05-06 06:01 -34.07746 167.27505 39172 ft 532 kts 119°
2026-05-06 06:01 -34.11013 167.35432 39176 ft 531 kts 119°
2026-05-06 06:02 -34.14295 167.43417 39170 ft 530 kts 119°
2026-05-06 06:02 -34.17574 167.51412 39177 ft 530 kts 118°
2026-05-06 06:03 -34.20838 167.59390 39179 ft 530 kts 118°
2026-05-06 06:03 -34.24100 167.67379 39183 ft 530 kts 118°
2026-05-06 06:04 -34.27334 167.75321 39183 ft 530 kts 118°
2026-05-06 06:04 -34.30585 167.83324 39184 ft 530 kts 118°
2026-05-06 06:05 -34.33818 167.91299 39186 ft 530 kts 118°
2026-05-06 06:05 -34.37060 167.99317 39186 ft 530 kts 118°
2026-05-06 06:06 -34.40296 168.07339 39187 ft 530 kts 118°
2026-05-06 06:06 -34.43526 168.15366 39192 ft 529 kts 118°
2026-05-06 06:07 -34.46724 168.23333 39195 ft 529 kts 118°
2026-05-06 06:07 -34.49935 168.31351 39198 ft 528 kts 118°
2026-05-06 06:08 -34.53137 168.39364 39201 ft 528 kts 118°
2026-05-06 06:08 -34.56328 168.47372 39202 ft 526 kts 118°
2026-05-06 06:09 -34.59509 168.55370 39205 ft 525 kts 118°
2026-05-06 06:09 -34.62671 168.63343 39207 ft 523 kts 118°
2026-05-06 06:10 -34.65820 168.71300 39208 ft 522 kts 118°
2026-05-06 06:10 -34.68936 168.79193 39215 ft 521 kts 118°
2026-05-06 06:11 -34.72064 168.87136 39215 ft 520 kts 118°
2026-05-06 06:11 -34.75185 168.95080 39215 ft 520 kts 118°
2026-05-06 06:12 -34.78296 169.03016 39217 ft 519 kts 118°
2026-05-06 06:12 -34.80880 169.09625 39222 ft 519 kts 118°
2026-05-06 06:13 -34.84479 169.18850 39228 ft 519 kts 118°
2026-05-06 06:13 -34.87567 169.26784 39230 ft 518 kts 118°
2026-05-06 06:14 -34.90151 169.33442 39228 ft 518 kts 118°
2026-05-06 06:14 -34.93208 169.41333 39232 ft 518 kts 118°
2026-05-06 06:15 -34.96283 169.49291 39233 ft 518 kts 118°
2026-05-06 06:15 -34.99348 169.57240 39236 ft 518 kts 118°
2026-05-06 06:16 -35.02409 169.65199 39235 ft 518 kts 118°
2026-05-06 06:16 -35.05459 169.73151 39241 ft 517 kts 117°
2026-05-06 06:17 -35.08505 169.81110 39241 ft 517 kts 117°
2026-05-06 06:17 -35.11546 169.89075 39246 ft 517 kts 117°
2026-05-06 06:18 -35.14554 169.96974 39245 ft 516 kts 117°
2026-05-06 06:18 -35.17578 170.04936 39243 ft 516 kts 117°
2026-05-06 06:19 -35.20595 170.12896 39248 ft 516 kts 117°
2026-05-06 06:19 -35.23602 170.20852 39249 ft 516 kts 117°
2026-05-06 06:20 -35.26610 170.28829 39253 ft 515 kts 117°
2026-05-06 06:20 -35.29607 170.36798 39256 ft 515 kts 117°
2026-05-06 06:21 -35.32595 170.44762 39257 ft 515 kts 117°
2026-05-06 06:21 -35.35585 170.52749 39263 ft 515 kts 117°
2026-05-06 06:22 -35.38544 170.60676 39264 ft 515 kts 117°
2026-05-06 06:22 -35.41524 170.68676 39262 ft 516 kts 117°
2026-05-06 06:23 -35.44498 170.76683 39263 ft 516 kts 117°
2026-05-06 06:23 -35.47298 170.84240 39268 ft 515 kts 117°
2026-05-06 06:24 -35.50261 170.92254 39272 ft 515 kts 117°
2026-05-06 06:24 -35.53215 171.00266 39273 ft 515 kts 117°
2026-05-06 06:25 -35.56159 171.08272 39278 ft 514 kts 117°
2026-05-06 06:26 -35.60285 171.20447 39283 ft 514 kts 114°
2026-05-06 06:26 -35.62963 171.28602 39276 ft 514 kts 115°
2026-05-06 06:27 -35.65634 171.36698 39287 ft 513 kts 115°
2026-05-06 06:27 -35.68312 171.44822 39279 ft 512 kts 115°
2026-05-06 06:28 -35.70985 171.52949 39279 ft 512 kts 115°
2026-05-06 06:28 -35.73649 171.61066 39284 ft 511 kts 114°
2026-05-06 06:29 -35.76307 171.69189 39287 ft 511 kts 114°
2026-05-06 06:29 -35.78943 171.77264 39296 ft 510 kts 114°
2026-05-06 06:30 -35.81581 171.85369 39292 ft 510 kts 114°
2026-05-06 06:30 -35.84213 171.93476 39300 ft 509 kts 114°
2026-05-06 06:31 -35.86837 172.01582 39269 ft 509 kts 114°
2026-05-06 06:31 -35.88140 172.05616 39050 ft 505 kts 114°
2026-05-06 06:31 -35.89436 172.09637 38797 ft 503 kts 114°
2026-05-06 06:31 -35.90725 172.13636 38517 ft 501 kts 114°
2026-05-06 06:32 -35.92011 172.17632 38240 ft 501 kts 114°
2026-05-06 06:32 -35.93289 172.21610 37777 ft 497 kts 114°
2026-05-06 06:32 -35.94559 172.25569 37174 ft 495 kts 114°
2026-05-06 06:32 -35.95826 172.29522 36557 ft 495 kts 114°
2026-05-06 06:33 -35.97091 172.33473 35930 ft 494 kts 114°
2026-05-06 06:33 -35.98353 172.37424 35283 ft 495 kts 114°
2026-05-06 06:33 -35.99615 172.41379 34697 ft 494 kts 114°
2026-05-06 06:33 -36.00868 172.45312 34187 ft 492 kts 114°
2026-05-06 06:34 -36.02118 172.49238 33646 ft 488 kts 114°
2026-05-06 06:34 -36.03353 172.53124 33143 ft 485 kts 114°
2026-05-06 06:34 -36.04582 172.56994 32642 ft 482 kts 113°
2026-05-06 06:34 -36.05802 172.60842 32136 ft 479 kts 113°
2026-05-06 06:35 -36.07009 172.64656 31641 ft 476 kts 113°
2026-05-06 06:35 -36.08210 172.68454 31151 ft 473 kts 113°
2026-05-06 06:35 -36.09403 172.72232 30666 ft 470 kts 113°
2026-05-06 06:35 -36.10571 172.75935 30156 ft 467 kts 113°
2026-05-06 06:36 -36.11748 172.79672 29655 ft 463 kts 113°
2026-05-06 06:36 -36.12910 172.83367 29188 ft 459 kts 113°
2026-05-06 06:36 -36.14062 172.87036 28716 ft 455 kts 113°
2026-05-06 06:36 -36.15204 172.90675 28243 ft 451 kts 113°
2026-05-06 06:37 -36.16336 172.94286 27782 ft 447 kts 113°
2026-05-06 06:37 -36.17454 172.97856 27324 ft 443 kts 113°
2026-05-06 06:37 -36.18563 173.01405 26873 ft 440 kts 113°
2026-05-06 06:37 -36.19661 173.04919 26416 ft 437 kts 113°
2026-05-06 06:38 -36.20749 173.08409 25964 ft 433 kts 112°
2026-05-06 06:38 -36.21832 173.11884 25517 ft 430 kts 112°
2026-05-06 06:38 -36.22891 173.15287 25071 ft 428 kts 112°
2026-05-06 06:38 -36.23955 173.18713 24619 ft 425 kts 112°
2026-05-06 06:39 -36.25014 173.22123 24163 ft 423 kts 112°
2026-05-06 06:39 -36.26065 173.25514 23695 ft 420 kts 112°
2026-05-06 06:39 -36.27111 173.28890 23214 ft 417 kts 112°
2026-05-06 06:39 -36.28140 173.32218 22760 ft 412 kts 112°
2026-05-06 06:40 -36.29161 173.35525 22298 ft 408 kts 112°
2026-05-06 06:40 -36.30170 173.38799 21867 ft 405 kts 112°
2026-05-06 06:40 -36.31170 173.42043 21437 ft 401 kts 112°
2026-05-06 06:40 -36.32162 173.45268 20970 ft 398 kts 112°
2026-05-06 06:41 -36.33145 173.48464 20538 ft 395 kts 112°
2026-05-06 06:41 -36.34115 173.51619 20106 ft 392 kts 112°
2026-05-06 06:41 -36.35089 173.54790 19665 ft 390 kts 111°
2026-05-06 06:41 -36.36048 173.57923 19220 ft 388 kts 111°
2026-05-06 06:42 -36.37003 173.61040 18799 ft 385 kts 111°
2026-05-06 06:42 -36.37952 173.64142 18324 ft 383 kts 111°
2026-05-06 06:42 -36.38897 173.67217 17883 ft 379 kts 111°
2026-05-06 06:42 -36.40081 173.70106 17485 ft 372 kts 126°
2026-05-06 06:43 -36.41770 173.72447 17102 ft 366 kts 136°
2026-05-06 06:43 -36.43605 173.74619 16692 ft 363 kts 137°
2026-05-06 06:43 -36.45417 173.76780 16292 ft 360 kts 136°
2026-05-06 06:43 -36.47203 173.78934 15872 ft 357 kts 136°
2026-05-06 06:44 -36.48974 173.81078 15466 ft 354 kts 136°
2026-05-06 06:44 -36.50731 173.83209 15063 ft 351 kts 135°
2026-05-06 06:44 -36.52473 173.85327 14670 ft 349 kts 135°
2026-05-06 06:44 -36.54199 173.87427 14286 ft 346 kts 135°
2026-05-06 06:45 -36.55915 173.89518 13846 ft 344 kts 135°
2026-05-06 06:45 -36.57617 173.91594 13428 ft 341 kts 135°
2026-05-06 06:45 -36.59303 173.93654 13050 ft 339 kts 135°
2026-05-06 06:45 -36.60971 173.95692 12831 ft 331 kts 134°
2026-05-06 06:46 -36.62602 173.97696 12408 ft 329 kts 134°
2026-05-06 06:46 -36.64231 173.99689 11799 ft 334 kts 134°
2026-05-06 06:46 -36.65867 174.01685 11414 ft 325 kts 134°
2026-05-06 06:46 -36.67479 174.03656 11047 ft 324 kts 134°
2026-05-06 06:47 -36.69076 174.05612 10683 ft 320 kts 134°
2026-05-06 06:47 -36.70649 174.07538 10486 ft 312 kts 134°
2026-05-06 06:47 -36.72172 174.09406 10372 ft 300 kts 134°
2026-05-06 06:47 -36.73636 174.11201 10258 ft 289 kts 134°
2026-05-06 06:48 -36.75059 174.12951 9955 ft 286 kts 134°
2026-05-06 06:48 -36.76495 174.14719 9661 ft 296 kts 134°
2026-05-06 06:48 -36.77975 174.16541 9468 ft 300 kts 134°
2026-05-06 06:48 -36.79455 174.18362 9281 ft 295 kts 134°
2026-05-06 06:49 -36.80886 174.20121 8971 ft 291 kts 134°
2026-05-06 06:49 -36.82323 174.21893 8620 ft 289 kts 134°
2026-05-06 06:49 -36.83741 174.23639 8321 ft 284 kts 134°
2026-05-06 06:49 -36.85138 174.25366 8036 ft 281 kts 134°
2026-05-06 06:50 -36.86524 174.27081 7748 ft 279 kts 134°
2026-05-06 06:50 -36.87905 174.28782 7467 ft 278 kts 134°
2026-05-06 06:50 -36.89276 174.30473 7170 ft 276 kts 134°
2026-05-06 06:50 -36.90639 174.32157 6892 ft 274 kts 134°
2026-05-06 06:51 -36.91971 174.33806 6600 ft 272 kts 134°
2026-05-06 06:51 -36.93316 174.35467 6306 ft 271 kts 134°
2026-05-06 06:51 -36.94659 174.37126 6018 ft 271 kts 134°
2026-05-06 06:51 -36.95866 174.38620 5738 ft 269 kts 134°
2026-05-06 06:52 -36.97177 174.40244 5441 ft 268 kts 134°
2026-05-06 06:52 -36.98497 174.41880 5164 ft 267 kts 133°
2026-05-06 06:52 -36.99812 174.43509 4865 ft 265 kts 133°
2026-05-06 06:52 -37.01121 174.45131 4557 ft 264 kts 133°
2026-05-06 06:53 -37.02418 174.46742 4270 ft 262 kts 133°
2026-05-06 06:53 -37.03705 174.48347 4031 ft 257 kts 133°
2026-05-06 06:53 -37.04949 174.49889 3904 ft 246 kts 132°
2026-05-06 06:53 -37.06143 174.51369 3801 ft 236 kts 132°
2026-05-06 06:54 -37.07178 174.52869 3652 ft 218 kts 115°
2026-05-06 06:54 -37.07506 174.54602 3642 ft 194 kts 90°
2026-05-06 06:54 -37.07420 174.56136 3634 ft 176 kts 73°
2026-05-06 06:54 -37.07018 174.57548 3425 ft 171 kts 64°
2026-05-06 06:55 -37.06606 174.58953 3124 ft 172 kts 68°
2026-05-06 06:55 -37.06231 174.60373 2806 ft 170 kts 68°
2026-05-06 06:55 -37.05862 174.61725 2547 ft 158 kts 67°
2026-05-06 06:55 -37.05518 174.62965 2363 ft 146 kts 67°
2026-05-06 06:56 -37.05191 174.64150 2161 ft 142 kts 67°
2026-05-06 06:56 -37.04870 174.65319 1976 ft 142 kts 67°
2026-05-06 06:56 -37.04554 174.66469 1776 ft 138 kts 67°
2026-05-06 06:56 -37.04244 174.67597 1599 ft 137 kts 66°
2026-05-06 06:57 -37.03933 174.68720 1413 ft 137 kts 68°
2026-05-06 06:57 -37.03625 174.69842 1232 ft 136 kts 68°
2026-05-06 06:57 -37.03316 174.70965 1032 ft 136 kts 68°
2026-05-06 06:57 -37.03008 174.72087 860 ft 137 kts 68°
2026-05-06 06:58 -37.02701 174.73195 681 ft 137 kts 69°
2026-05-06 06:58 -37.02391 174.74324 500 ft 137 kts 69°
2026-05-06 06:58 -37.02080 174.75456 301 ft 137 kts 70°
2026-05-06 06:58 -37.01768 174.76580 140 ft 137 kts 69°
2026-05-06 06:59 -37.01457 174.77697 33 ft 132 kts 70°
2026-05-06 06:59 -37.01207 174.78600 32 ft 87 kts 71°
2026-05-06 06:59 -37.01059 174.79134 32 ft 42 kts 71°
2026-05-06 06:59 -37.00998 174.79363 32 ft 24 kts 71°
2026-05-06 07:00 -37.00923 174.79551 31 ft 25 kts 53°
2026-05-06 07:00 -37.00833 174.79667 31 ft 0 kts 42°
2026-05-06 07:01 -37.00832 174.79667 31 ft 1 kts 42°
2026-05-06 07:01 -37.00804 174.79699 30 ft 10 kts 41°
2026-05-06 07:01 -37.00744 174.79730 31 ft 8 kts 339°
2026-05-06 07:02 -37.00729 174.79648 31 ft 14 kts 255°
2026-05-06 07:02 -37.00772 174.79496 31 ft 21 kts 251°
2026-05-06 07:02 -37.00820 174.79319 31 ft 23 kts 251°
2026-05-06 07:02 -37.00875 174.79123 32 ft 25 kts 251°
2026-05-06 07:03 -37.00912 174.78986 32 ft 26 kts 251°
2026-05-06 07:03 -37.00987 174.78716 32 ft 21 kts 251°
2026-05-06 07:03 -37.01020 174.78598 32 ft 22 kts 251°
2026-05-06 07:03 -37.01068 174.78421 32 ft 11 kts 251°
2026-05-06 07:04 -37.01081 174.78355 32 ft 12 kts 268°
2026-05-06 07:04 -37.01012 174.78272 32 ft 11 kts 334°
2026-05-06 07:04 -37.00975 174.78234 31 ft 6 kts 315°
2026-05-06 07:04 -37.00951 174.78206 32 ft 3 kts 324°
2026-05-06 07:05 -37.00934 174.78198 32 ft 4 kts 344°
2026-05-06 07:05 -37.00906 174.78204 32 ft 4 kts 17°
2026-05-06 07:05 -37.00891 174.78210 32 ft 0 kts 16°
2026-05-06 07:12 -37.00887 174.78211 16 ft 1 kts 16°
2026-05-06 07:12 -37.00875 174.78216 30 ft 2 kts 16°
2026-05-06 07:12 -37.00866 174.78219 32 ft 0 kts 17°
2026-05-06 07:13 -37.00861 174.78221 32 ft 2 kts 16°